User: anonymous   Login
Location: Unspecified
(0.0000°N, 0.0000°E)
Time: 08:18:17
(UTC+00:00)
Language:

DMSP 5D-3 F19 (USA 249) - Orbit

View from above orbital plane
View from above orbital plane
View from above satellite
View from above satellite

Ground track
Ground track

The orbit data is extracted from the following two-line orbital elements,

1 39630U 14015A   19138.20352594  .00000010  00000-0  28171-4 0  9998
2 39630  98.7631 151.8892 0010912  28.0870 332.0889 14.13916761264328
Epoch (UTC): 18 May 2019 04:53:04
Eccentricity: 0.0010912
inclination: 98.7631°
perigee height: 838 km
apogee height: 854 km
right ascension of ascending node: 151.8892°
argument of perigee: 28.0870°
revolutions per day: 14.13916761
mean anomaly at epoch: 332.0889°
orbit number at epoch: 26432

The dashed part of the orbit path shows where the satellite is in the earth's shadow,  

DLR